TimePST,TemperatureF,Dew PointF,Humidity,Sea Level PressureIn,VisibilityMPH,Wind Direction,Wind SpeedMPH,Gust SpeedMPH,PrecipitationIn,Events,Conditions,WindDirDegrees,DateUTC
12:56 AM,30.0,28.0,92,30.36,9.0,Calm,Calm,-,N/A,,Clear,0,2012-11-26 08:56:00
1:06 AM,30.2,28.4,93,30.32,2.5,Calm,Calm,-,N/A,,Partly Cloudy,0,2012-11-26 09:06:00
1:16 AM,28.4,28.4,100,30.32,8.0,Calm,Calm,-,N/A,,Clear,0,2012-11-26 09:16:00
1:56 AM,30.0,28.0,92,30.36,10.0,East,3.5,-,N/A,,Clear,80,2012-11-26 09:56:00
2:54 AM,28.4,26.6,93,30.32,8.0,Calm,Calm,-,N/A,,Partly Cloudy,0,2012-11-26 10:54:00
2:56 AM,28.9,27.0,92,30.36,6.0,Calm,Calm,-,N/A,,Partly Cloudy,0,2012-11-26 10:56:00
3:15 AM,28.4,26.6,93,30.32,10.0,Calm,Calm,-,N/A,,Mostly Cloudy,0,2012-11-26 11:15:00
3:56 AM,28.9,27.0,92,30.35,9.0,Calm,Calm,-,N/A,,Overcast,0,2012-11-26 11:56:00
4:56 AM,32.0,28.9,88,30.33,10.0,Calm,Calm,-,N/A,,Overcast,0,2012-11-26 12:56:00
5:27 AM,30.2,28.4,93,30.28,8.0,SSE,3.5,-,N/A,,Mostly Cloudy,160,2012-11-26 13:27:00
5:56 AM,32.0,28.9,88,30.33,10.0,Calm,Calm,-,N/A,,Mostly Cloudy,0,2012-11-26 13:56:00
6:13 AM,32.0,28.4,87,30.28,10.0,ENE,4.6,-,N/A,,Mostly Cloudy,60,2012-11-26 14:13:00
6:56 AM,30.9,27.0,85,30.32,10.0,NE,10.4,-,N/A,,Mostly Cloudy,50,2012-11-26 14:56:00
7:03 AM,30.2,26.6,86,30.27,10.0,ENE,9.2,-,N/A,,Overcast,60,2012-11-26 15:03:00
7:24 AM,30.2,26.6,86,30.28,10.0,ENE,9.2,-,N/A,,Scattered Clouds,70,2012-11-26 15:24:00
7:56 AM,30.9,28.0,89,30.31,10.0,ENE,9.2,-,N/A,,Scattered Clouds,70,2012-11-26 15:56:00
8:56 AM,33.1,28.0,82,30.31,10.0,ENE,8.1,-,N/A,,Clear,70,2012-11-26 16:56:00
9:56 AM,35.1,28.9,78,30.31,10.0,ENE,11.5,-,N/A,,Clear,60,2012-11-26 17:56:00
10:56 AM,37.0,28.9,73,30.28,10.0,East,9.2,-,0.00,Snow,Light Snow,80,2012-11-26 18:56:00
11:56 AM,37.9,30.9,76,30.27,10.0,Calm,Calm,-,0.00,,Clear,0,2012-11-26 19:56:00
12:56 PM,39.0,30.9,73,30.25,10.0,Calm,Calm,-,N/A,,Clear,0,2012-11-26 20:56:00
1:56 PM,41.0,30.9,67,30.23,10.0,NNW,3.5,-,N/A,,Clear,330,2012-11-26 21:56:00
2:56 PM,42.1,30.0,62,30.22,10.0,North,3.5,-,N/A,,Clear,10,2012-11-26 22:56:00
3:56 PM,37.9,30.0,73,30.22,10.0,Calm,Calm,-,N/A,,Clear,0,2012-11-26 23:56:00
4:56 PM,37.0,30.0,76,30.21,10.0,Calm,Calm,-,N/A,,Clear,0,2012-11-27 00:56:00
5:56 PM,35.1,30.0,82,30.21,10.0,ESE,3.5,-,N/A,,Clear,120,2012-11-27 01:56:00
6:56 PM,35.1,28.9,78,30.22,10.0,ESE,3.5,-,N/A,,Clear,120,2012-11-27 02:56:00
7:56 PM,36.0,28.9,76,30.22,10.0,Calm,Calm,-,N/A,,Mostly Cloudy,0,2012-11-27 03:56:00
8:56 PM,36.0,30.0,79,30.23,10.0,NE,3.5,-,N/A,,Overcast,50,2012-11-27 04:56:00
9:56 PM,35.1,30.0,82,30.25,10.0,Calm,Calm,-,N/A,,Overcast,0,2012-11-27 05:56:00
10:56 PM,35.1,30.0,82,30.25,10.0,Calm,Calm,-,N/A,,Overcast,0,2012-11-27 06:56:00
11:56 PM,36.0,28.9,76,30.24,10.0,East,4.6,-,0.00,Snow,Light Snow,100,2012-11-27 07:56:00